[[{"header":{"parameterUnit":"m.s-1","parameterCategory":1,"la1":30.2991,"la2":30.254,"lo1":-89.0895,"lo2":-89.0444,"dy":0.0017,"dx":0.0017,"nx":28,"ny":28,"refTime":"2024-03-28T03:00:00:Z","depth":0,"parameterNumber":2,"parameterNumberName":"U-component_of_WINDS"},"data":[0,0,0,0,0,0,0,0,0,0,0,0,0,0,0,0,0,0,0,0,0,0,0,0,0,0,0,0,0,0,0,0,0,0,0,0,0,0,0,0,0,0,0,0,0,0,0,0,0,0,0,0,0,0,0,0,0,0,2.1524,2.1525,0,2.1619,2.162,2.1621,2.1627,2.1626,2.1625,2.1624,2.172,2.1724,2.1727,0,0,0,0,0,0,0,0,0,0,0,0,0,2.1347,2.135,2.1523,2.1525,2.1526,2.1619,2.162,2.1621,2.1627,2.1626,2.1625,2.1623,2.1719,2.1723,2.1727,0,0,0,0,0,0,0,0,0,0,0,0,0,2.1431,2.1351,2.1523,2.154,2.1543,2.1618,2.162,2.1622,2.1628,2.1626,2.1624,2.1623,2.1718,2.1723,2.1728,2.1793,0,0,2.1744,2.1747,0,0,0,0,0,0,0,0,2.1426,2.1437,2.1536,2.1539,2.1542,2.1609,2.1593,2.1679,2.1628,2.1595,2.1624,2.1622,2.1685,2.1692,2.1714,2.1798,2.1802,2.1745,2.1748,2.175,2.1752,0,0,0,0,0,0,0,2.142,2.1433,2.1561,2.1538,2.1541,2.1543,2.1553,2.1609,2.1648,2.1598,2.1599,2.161,2.1686,2.1709,2.1716,2.1803,2.1745,2.1749,2.1753,2.1755,2.1947,2.1949,0,0,0,0,0,0,2.1411,2.1428,2.1558,2.1564,2.1479,2.1547,2.1559,2.1589,2.1647,2.1654,2.1611,2.161,2.17,2.171,2.172,2.1801,2.175,2.1755,2.1758,2.1945,2.1948,2.195,0,0,0,0,0,0,2.1407,2.1423,2.1554,2.1496,2.1513,2.1552,2.1586,2.1592,2.1615,2.1657,2.1664,2.1628,2.1699,2.1712,2.1775,2.1804,2.1758,2.1763,2.1943,2.1946,2.1949,2.1963,0,0,0,0,0,0,2.1402,2.1421,2.1446,2.1497,2.1516,2.1608,2.1588,2.1595,2.1624,2.1624,2.1674,2.1681,2.1699,2.1767,2.1781,2.1811,2.1767,2.1941,2.1944,2.1948,2.196,2.1966,2.1971,0,0,0,0,0,2.1396,2.1446,2.1447,2.1463,2.1548,2.161,2.1621,2.1641,2.1627,2.1652,2.168,2.168,2.1799,2.1774,2.1789,2.1821,2.1939,2.1943,2.1947,2.1957,2.1964,2.197,0,0,0,0,0,0,2.1396,2.1452,2.1455,2.1523,2.1562,2.1611,2.1644,2.1648,2.1691,2.1688,2.1711,2.1723,2.1786,2.181,2.1781,2.1888,2.1867,2.1875,2.187,2.1877,2.1882,2.1875,2.1771,0,0,0,0,0,2.1404,2.145,2.1496,2.1552,2.1571,2.1604,2.1632,2.1644,2.1685,2.1701,2.1733,2.1773,2.1819,2.1849,2.1894,2.1964,2.1975,2.1993,2.1998,2.2003,2.2009,2.2049,2.2057,2.1964,2.1964,2.1964,0,0,2.1421,2.1458,2.1485,2.1553,2.1584,2.1631,2.1618,2.1667,2.1703,2.1709,2.1771,2.1796,2.1842,2.1908,2.1939,2.193,2.2038,2.2008,2.2011,2.2015,2.2054,2.2063,2.207,2.1967,2.1966,2.1966,0,0,2.1476,2.1508,2.1558,2.159,2.1639,2.1661,2.1673,2.1722,2.1739,2.1802,2.1809,2.1851,2.193,2.1963,2.199,2.206,2.2062,2.2074,2.2102,2.214,2.2148,2.2154,2.218,2.2189,2.208,2.208,2.208,0,2.149,2.1561,2.1583,2.1633,2.1663,2.1673,2.1724,2.1754,2.1815,2.1835,2.1825,2.1926,2.1957,2.2032,2.205,2.2071,2.2086,2.2068,2.2145,2.2152,2.2158,2.2183,2.2192,2.2081,2.2081,2.2081,2.2081,0,2.1577,2.1627,2.1661,2.1721,2.1755,2.1805,2.1835,2.1867,2.1877,2.19,2.1965,2.2004,2.2057,2.2076,2.2086,2.2154,2.2147,2.214,2.212,2.2168,2.2192,2.2201,2.2083,2.2082,2.2082,2.2082,0,0,2.1633,2.1706,2.1718,2.1746,2.1801,2.1839,2.1891,2.1944,2.1972,2.2014,2.2058,2.2126,2.2121,2.2152,2.2166,2.22,2.2254,2.2189,2.2191,2.22,2.2332,2.2336,2.2347,2.2256,2.2257,2.2259,2.2328,0,2.1694,2.1786,2.1808,2.1887,2.1933,2.1944,2.1989,2.2028,2.2052,2.2095,2.2121,2.2169,2.2158,2.2177,2.2211,2.224,2.228,2.2235,2.2297,2.2299,2.2285,2.2359,2.2363,2.2426,2.2337,2.2339,2.234,0,2.1777,2.1822,2.1906,2.1957,2.1977,2.2017,2.2069,2.211,2.2155,2.217,2.2205,2.2216,2.2271,2.2249,2.2325,2.2294,2.2321,2.2339,2.2342,2.2348,2.2322,2.2367,2.2447,2.2456,2.2355,2.2353,2.2352,0,2.181,2.1892,2.1953,2.1976,2.2037,2.2065,2.2092,2.2135,2.2166,2.2212,2.2233,2.2283,2.2311,2.235,2.2375,2.2357,2.245,2.2429,2.2464,2.2463,2.2482,2.2481,2.2567,2.25,2.25,2.2499,2.2499,0,2.1875,2.1926,2.1969,2.2006,2.2064,2.2089,2.2146,2.2173,2.2212,2.2255,2.2267,2.2307,2.2338,2.2383,2.2402,2.2463,2.2475,2.2489,2.2494,2.2488,2.2486,2.2505,2.2502,2.2502,2.2501,2.2501,2.25,0,2.1921,2.1952,2.2019,2.2072,2.2086,2.2127,2.2172,2.2209,2.2234,2.2289,2.2303,2.2342,2.2395,2.2424,2.2491,2.2505,2.2572,2.2575,2.2557,2.2559,2.2592,2.2589,2.2695,2.271,2.2632,2.2633,2.2633,0,2.1961,2.2001,2.2058,2.2089,2.2116,2.2164,2.2197,2.2224,2.2258,2.2313,2.2344,2.2398,2.2443,2.2528,2.2563,2.2614,2.2618,2.2651,2.2625,2.2619,2.2619,2.2616,2.262,2.2655,2.2656,2.2657,2.2657,0,2.2028,2.2042,2.2089,2.2141,2.218,2.2223,2.2265,2.2289,2.2323,2.236,2.2415,2.245,2.252,2.2574,2.2629,2.2656,2.2663,2.2665,2.2676,2.2671,2.2659,2.2666,2.257,2.2663,2.2662,2.2662,2.2661,2.2661,2.2073,2.2109,2.2156,2.2208,2.2243,2.2282,2.232,2.2351,2.2398,2.2456,2.247,2.2528,2.2574,2.2649,2.2678,2.2725,2.2718,2.2733,2.2737,2.2741,2.2742,2.2652,2.2735,2.2735,2.2734,2.2734,2.2734,0,2.2141,2.2172,2.222,2.2279,2.232,2.2324,2.2372,2.2406,2.2457,2.25,2.2545,2.2609,2.2662,2.2702,2.2756,2.2786,2.279,2.2799,2.2797,2.2804,2.2745,2.273,2.2795,2.2795,2.2795,2.2795,2.2795,2.2795,2.2181,2.2243,2.2263,2.2343,2.2374,2.2432,2.2459,2.2496,2.253,2.2602,2.2646,2.2672,2.2714,2.2772,2.2821,2.2831,2.2851,2.2859,2.287,2.2814,2.2808,2.2801,2.2788,2.2863,2.2864,2.2925,2.2926,2.2926]},{"header":{"parameterUnit":"m.s-1","parameterCategory":1,"la1":30.2991,"la2":30.254,"lo1":-89.0895,"lo2":-89.0444,"dy":0.0017,"dx":0.0017,"nx":28,"ny":28,"refTime":"2024-03-28T03:00:00:Z","depth":0,"parameterNumber":3,"parameterNumberName":"V-component_of_WINDS"},"data":[0,0,0,0,0,0,0,0,0,0,0,0,0,0,0,0,0,0,0,0,0,0,0,0,0,0,0,0,0,0,0,0,0,0,0,0,0,0,0,0,0,0,0,0,0,0,0,0,0,0,0,0,0,0,0,0,0,0,-5.6627,-5.6629,0,-5.6763,-5.6764,-5.6766,-5.6715,-5.6712,-5.6708,-5.6705,-5.6841,-5.6847,-5.6853,0,0,0,0,0,0,0,0,0,0,0,0,0,-5.6321,-5.6327,-5.6627,-5.6629,-5.6631,-5.6763,-5.6764,-5.6766,-5.6715,-5.6711,-5.6708,-5.6704,-5.6838,-5.6846,-5.6854,0,0,0,0,0,0,0,0,0,0,0,0,0,-5.6455,-5.6329,-5.6627,-5.6621,-5.6622,-5.6762,-5.6764,-5.6767,-5.6716,-5.6711,-5.6707,-5.6702,-5.6836,-5.6845,-5.6855,-5.7008,0,0,-5.6885,-5.6889,0,0,0,0,0,0,0,0,-5.6448,-5.6466,-5.662,-5.6622,-5.6623,-5.6717,-5.6706,-5.6847,-5.6717,-5.668,-5.6705,-5.67,-5.6803,-5.6815,-5.6851,-5.7014,-5.702,-5.6885,-5.6891,-5.6896,-5.6898,0,0,0,0,0,0,0,-5.6438,-5.646,-5.6681,-5.6622,-5.6624,-5.6611,-5.6625,-5.6733,-5.6766,-5.6683,-5.668,-5.6697,-5.6803,-5.6841,-5.6853,-5.7022,-5.6885,-5.6894,-5.69,-5.6904,-5.7319,-5.7324,0,0,0,0,0,0,-5.6429,-5.6453,-5.6676,-5.6685,-5.6522,-5.662,-5.6636,-5.6691,-5.6765,-5.6771,-5.67,-5.6694,-5.6827,-5.6842,-5.6858,-5.7043,-5.6895,-5.6905,-5.691,-5.7314,-5.732,-5.7325,0,0,0,0,0,0,-5.6423,-5.645,-5.6671,-5.6568,-5.6595,-5.663,-5.6693,-5.6697,-5.6735,-5.6778,-5.6783,-5.6734,-5.6824,-5.6844,-5.6971,-5.7047,-5.6909,-5.6918,-5.7307,-5.7315,-5.7323,-5.7413,0,0,0,0,0,0,-5.6414,-5.6448,-5.6507,-5.657,-5.6601,-5.6783,-5.6698,-5.6703,-5.6753,-5.6745,-5.6811,-5.6817,-5.6822,-5.6957,-5.6981,-5.7058,-5.6925,-5.7301,-5.7311,-5.732,-5.7404,-5.7423,-5.744,0,0,0,0,0,-5.6403,-5.6525,-5.651,-5.6537,-5.6676,-5.6788,-5.6805,-5.681,-5.6759,-5.6818,-5.6846,-5.6815,-5.7035,-5.6971,-5.6997,-5.7078,-5.7296,-5.7308,-5.7319,-5.7395,-5.7419,-5.7439,0,0,0,0,0,0,-5.6468,-5.6534,-5.6517,-5.6663,-5.6721,-5.6779,-5.6854,-5.6834,-5.6906,-5.6896,-5.6897,-5.6912,-5.7044,-5.7073,-5.7001,-5.723,-5.7157,-5.7175,-5.7206,-5.7229,-5.7247,-5.7237,-5.6933,0,0,0,0,0,-5.65,-5.6587,-5.6638,-5.6763,-5.6792,-5.6819,-5.6867,-5.6866,-5.6925,-5.6948,-5.6985,-5.7042,-5.7124,-5.7178,-5.7256,-5.7407,-5.7421,-5.7476,-5.7494,-5.7508,-5.7524,-5.7607,-5.7632,-5.7364,-5.7364,-5.7364,0,0,-5.6566,-5.6612,-5.6666,-5.6777,-5.6821,-5.691,-5.6839,-5.6936,-5.7002,-5.6962,-5.7086,-5.7115,-5.7179,-5.7319,-5.7383,-5.7348,-5.7601,-5.7523,-5.7535,-5.7542,-5.7622,-5.7647,-5.767,-5.7372,-5.737,-5.7369,0,0,-5.6731,-5.6775,-5.6884,-5.693,-5.6999,-5.7016,-5.7042,-5.7104,-5.7122,-5.7246,-5.7219,-5.7296,-5.7437,-5.7485,-5.7527,-5.7712,-5.7687,-5.7737,-5.7832,-5.7913,-5.7934,-5.7953,-5.802,-5.8044,-5.7752,-5.7753,-5.7753,0,-5.6804,-5.6939,-5.6942,-5.7042,-5.7092,-5.7062,-5.7172,-5.7216,-5.7306,-5.7341,-5.73,-5.7478,-5.7519,-5.767,-5.7716,-5.7751,-5.7781,-5.773,-5.7931,-5.795,-5.7968,-5.8031,-5.8057,-5.7758,-5.7758,-5.7757,-5.7757,0,-5.7025,-5.7119,-5.7198,-5.7288,-5.7346,-5.7451,-5.747,-5.7528,-5.7522,-5.7543,-5.767,-5.7718,-5.7805,-5.7841,-5.7835,-5.7993,-5.7969,-5.793,-5.7857,-5.7999,-5.8059,-5.8083,-5.7767,-5.7765,-5.7763,-5.7761,0,0,-5.7235,-5.7327,-5.7356,-5.7397,-5.7471,-5.7543,-5.7646,-5.7733,-5.7784,-5.7847,-5.7933,-5.8054,-5.8019,-5.8068,-5.8067,-5.8138,-5.8283,-5.8091,-5.8092,-5.8125,-5.8461,-5.849,-5.8518,-5.8267,-5.8271,-5.8275,-5.8455,0,-5.7407,-5.759,-5.7597,-5.7763,-5.785,-5.7824,-5.7913,-5.7968,-5.7991,-5.8067,-5.8091,-5.8177,-5.8124,-5.8153,-5.8223,-5.8251,-5.835,-5.8238,-5.8347,-5.8351,-5.8333,-5.8549,-5.8581,-5.8749,-5.8479,-5.8483,-5.8486,0,-5.7632,-5.7705,-5.7881,-5.7944,-5.798,-5.8061,-5.8143,-5.8216,-5.8277,-5.8289,-5.8344,-5.8333,-5.8438,-5.8362,-5.8507,-5.843,-5.8475,-5.8495,-5.8502,-5.8513,-5.8427,-5.8567,-5.8802,-5.8828,-5.8522,-5.852,-5.8517,0,-5.7769,-5.791,-5.8034,-5.807,-5.8146,-5.8204,-5.8238,-5.8295,-5.8348,-5.8418,-5.8453,-5.8534,-5.8578,-5.8641,-5.8652,-5.8596,-5.8798,-5.8722,-5.881,-5.881,-5.8854,-5.8851,-5.9101,-5.8882,-5.8882,-5.8881,-5.8881,0,-5.7961,-5.807,-5.8097,-5.8173,-5.8294,-5.8301,-5.842,-5.845,-5.8502,-5.8583,-5.8564,-5.864,-5.865,-5.8729,-5.8738,-5.8857,-5.8877,-5.8889,-5.889,-5.8891,-5.889,-5.8921,-5.891,-5.8888,-5.8887,-5.8885,-5.8884,0,-5.8134,-5.8157,-5.829,-5.8352,-5.8371,-5.8457,-5.851,-5.8583,-5.8603,-5.8707,-5.8731,-5.8764,-5.8855,-5.8873,-5.8981,-5.8987,-5.9129,-5.9118,-5.9109,-5.9108,-5.9196,-5.9188,-5.9474,-5.9513,-5.9268,-5.927,-5.9272,0,-5.8256,-5.8339,-5.8411,-5.8465,-5.8503,-5.8589,-5.8643,-5.8653,-5.871,-5.8787,-5.8851,-5.8941,-5.9014,-5.9162,-5.9194,-5.9277,-5.9268,-5.9363,-5.9281,-5.928,-5.9271,-5.9266,-5.9275,-5.9379,-5.9382,-5.9384,-5.9386,0,-5.8469,-5.8477,-5.8556,-5.864,-5.8706,-5.8772,-5.8835,-5.888,-5.8898,-5.8962,-5.9057,-5.9114,-5.9225,-5.9315,-5.9398,-5.9432,-5.9413,-5.9412,-5.9437,-5.9439,-5.9431,-5.9437,-5.9153,-5.9405,-5.9403,-5.9402,-5.9401,-5.94,-5.8621,-5.8694,-5.8757,-5.8846,-5.8895,-5.8955,-5.9027,-5.9058,-5.9137,-5.923,-5.923,-5.9334,-5.9394,-5.9504,-5.9543,-5.9624,-5.9594,-5.963,-5.9639,-5.9648,-5.9657,-5.9418,-5.9639,-5.9639,-5.9638,-5.9638,-5.9637,0,-5.8834,-5.8873,-5.8956,-5.9046,-5.9116,-5.9093,-5.9161,-5.9222,-5.9314,-5.9372,-5.9445,-5.9555,-5.9642,-5.9682,-5.9768,-5.9826,-5.9819,-5.9848,-5.9844,-5.9853,-5.9678,-5.9649,-5.9852,-5.9852,-5.9852,-5.9852,-5.9852,-5.9852,-5.8953,-5.9077,-5.9092,-5.924,-5.9278,-5.9381,-5.9423,-5.9478,-5.9524,-5.9648,-5.9722,-5.9748,-5.9799,-5.9889,-5.9968,-5.9978,-6.001,-6.0044,-6.005,-5.9886,-5.9865,-5.9844,-5.9816,-6.0051,-6.0051,-6.0217,-6.0219,-6.022]}]]